Time,TemperatureF,DewpointF,PressureIn,WindDirection,WindDirectionDegrees,WindSpeedMPH,WindSpeedGustMPH,Humidity,HourlyPrecipIn,Conditions,Clouds,dailyrainin,SoftwareType,DateUTC
2013-03-18 00:03:00,73.0,67.0,30.05,SSE,147,14.0,16.0,81,0.00,,,0.00,,2013-03-18 04:03:00,
2013-03-18 00:13:00,73.0,67.0,30.05,SSE,147,14.0,16.0,81,0.00,,,0.00,,2013-03-18 04:13:00,
2013-03-18 00:23:00,73.0,68.0,30.05,SSE,152,12.0,15.0,83,0.00,,,0.00,,2013-03-18 04:23:00,
2013-03-18 00:33:00,73.0,68.0,30.04,SSE,148,12.0,16.0,83,0.00,,,0.00,,2013-03-18 04:33:00,
2013-03-18 00:42:00,73.0,68.0,30.04,SSE,148,12.0,16.0,83,0.00,,,0.00,,2013-03-18 04:42:00,
2013-03-18 00:53:00,73.0,68.0,30.04,SE,139,12.0,14.0,83,0.00,,,0.00,,2013-03-18 04:53:00,
2013-03-18 01:03:00,73.0,68.0,30.04,SE,146,13.0,16.0,83,0.00,,,0.00,,2013-03-18 05:03:00,
2013-03-18 01:12:00,73.0,68.0,30.04,SE,146,13.0,16.0,83,0.00,,,0.00,,2013-03-18 05:12:00,
2013-03-18 01:22:00,73.0,68.0,30.03,SSE,150,13.0,16.0,83,0.00,,,0.00,,2013-03-18 05:22:00,
2013-03-18 01:32:00,73.0,68.0,30.03,SSE,157,14.0,16.0,83,0.00,,,0.00,,2013-03-18 05:32:00,
2013-03-18 01:43:00,73.0,68.0,30.03,SSE,157,14.0,16.0,83,0.00,,,0.00,,2013-03-18 05:43:00,
2013-03-18 01:52:00,73.0,68.0,30.03,SSE,158,13.0,16.0,84,0.00,,,0.00,,2013-03-18 05:52:00,
2013-03-18 02:02:00,73.0,68.0,30.03,SSE,150,15.0,19.0,83,0.00,,,0.00,,2013-03-18 06:02:00,
2013-03-18 02:12:00,73.0,68.0,30.03,SSE,150,15.0,19.0,83,0.00,,,0.00,,2013-03-18 06:12:00,
2013-03-18 02:22:00,73.0,68.0,30.01,SSE,148,17.0,20.0,84,0.00,,,0.00,,2013-03-18 06:22:00,
2013-03-18 02:32:00,73.0,68.0,30.01,SSE,155,16.0,21.0,84,0.00,,,0.00,,2013-03-18 06:32:00,
2013-03-18 02:42:00,73.0,68.0,30.01,SSE,155,16.0,21.0,84,0.00,,,0.00,,2013-03-18 06:42:00,
2013-03-18 02:53:00,73.0,68.0,30.00,SSE,157,19.0,22.0,83,0.00,,,0.00,,2013-03-18 06:53:00,
2013-03-18 03:02:00,73.0,68.0,30.00,SSE,152,17.0,21.0,83,0.00,,,0.00,,2013-03-18 07:02:00,
2013-03-18 03:12:00,73.0,68.0,30.00,SSE,152,17.0,21.0,83,0.00,,,0.00,,2013-03-18 07:12:00,
2013-03-18 03:22:00,74.0,68.0,29.99,SSE,148,18.0,23.0,82,0.00,,,0.00,,2013-03-18 07:22:00,
2013-03-18 03:33:00,74.0,68.0,29.98,SSE,156,16.0,22.0,83,0.00,,,0.00,,2013-03-18 07:33:00,
2013-03-18 03:42:00,74.0,68.0,29.98,SSE,156,16.0,22.0,83,0.00,,,0.00,,2013-03-18 07:42:00,
2013-03-18 03:53:00,74.0,68.0,29.98,SE,140,14.0,21.0,83,0.00,,,0.00,,2013-03-18 07:53:00,
2013-03-18 04:02:00,74.0,68.0,29.98,SE,142,17.0,22.0,83,0.00,,,0.00,,2013-03-18 08:02:00,
2013-03-18 04:12:00,74.0,68.0,29.98,SE,142,17.0,22.0,83,0.00,,,0.00,,2013-03-18 08:12:00,
2013-03-18 04:22:00,74.0,68.0,29.98,SSE,154,17.0,21.0,83,0.00,,,0.00,,2013-03-18 08:22:00,
2013-03-18 04:32:00,74.0,68.0,29.98,SSE,151,16.0,21.0,83,0.00,,,0.00,,2013-03-18 08:32:00,
2013-03-18 04:43:00,74.0,68.0,29.98,SSE,151,16.0,21.0,83,0.00,,,0.00,,2013-03-18 08:43:00,
2013-03-18 04:53:00,74.0,69.0,29.98,SE,143,16.0,20.0,84,0.00,,,0.00,,2013-03-18 08:53:00,
2013-03-18 05:02:00,73.0,68.0,29.99,SE,144,15.0,19.0,84,0.00,,,0.00,,2013-03-18 09:02:00,
2013-03-18 05:12:00,73.0,68.0,29.99,SE,144,15.0,19.0,84,0.00,,,0.00,,2013-03-18 09:12:00,
2013-03-18 05:22:00,74.0,69.0,29.99,SE,144,13.0,18.0,85,0.00,,,0.00,,2013-03-18 09:22:00,
2013-03-18 05:33:00,73.0,68.0,29.99,SSE,150,14.0,19.0,85,0.00,,,0.00,,2013-03-18 09:33:00,
2013-03-18 05:43:00,73.0,68.0,29.99,SSE,150,14.0,19.0,85,0.00,,,0.00,,2013-03-18 09:43:00,
2013-03-18 05:53:00,74.0,69.0,29.99,SE,142,14.0,19.0,85,0.00,,,0.00,,2013-03-18 09:53:00,
2013-03-18 06:03:00,74.0,69.0,29.99,SE,140,14.0,18.0,85,0.00,,,0.00,,2013-03-18 10:03:00,
2013-03-18 06:13:00,74.0,69.0,29.99,SE,140,14.0,18.0,85,0.00,,,0.00,,2013-03-18 10:13:00,
2013-03-18 06:23:00,73.0,68.0,29.99,SE,145,15.0,19.0,85,0.00,,,0.00,,2013-03-18 10:23:00,
2013-03-18 06:33:00,74.0,70.0,30.00,SSE,150,14.0,20.0,86,0.00,,,0.00,,2013-03-18 10:33:00,
2013-03-18 06:42:00,74.0,70.0,30.00,SSE,150,14.0,20.0,86,0.00,,,0.00,,2013-03-18 10:42:00,
2013-03-18 06:53:00,74.0,70.0,30.00,SE,139,17.0,20.0,86,0.00,,,0.00,,2013-03-18 10:53:00,
2013-03-18 07:03:00,74.0,70.0,30.00,SE,135,15.0,19.0,86,0.00,,,0.00,,2013-03-18 11:03:00,
2013-03-18 07:13:00,74.0,70.0,30.00,SE,135,15.0,19.0,86,0.00,,,0.00,,2013-03-18 11:13:00,
2013-03-18 07:22:00,74.0,70.0,30.01,SE,128,18.0,20.0,86,0.00,,,0.00,,2013-03-18 11:22:00,
2013-03-18 07:32:00,74.0,70.0,30.01,SE,139,17.0,19.0,86,0.00,,,0.00,,2013-03-18 11:32:00,
2013-03-18 07:42:00,74.0,70.0,30.01,SE,139,17.0,19.0,86,0.00,,,0.00,,2013-03-18 11:42:00,
2013-03-18 07:53:00,74.0,70.0,30.01,SSE,148,17.0,21.0,86,0.00,,,0.00,,2013-03-18 11:53:00,
2013-03-18 08:02:00,74.0,70.0,30.01,SSE,151,16.0,22.0,87,0.00,,,0.00,,2013-03-18 12:02:00,
2013-03-18 08:12:00,74.0,70.0,30.01,SSE,151,16.0,22.0,87,0.00,,,0.00,,2013-03-18 12:12:00,
2013-03-18 08:22:00,74.0,70.0,30.01,SE,139,17.0,23.0,87,0.00,,,0.00,,2013-03-18 12:22:00,
2013-03-18 08:32:00,74.0,70.0,30.01,SE,134,16.0,21.0,87,0.00,,,0.00,,2013-03-18 12:32:00,
2013-03-18 08:43:00,74.0,70.0,30.01,SE,134,16.0,21.0,87,0.00,,,0.00,,2013-03-18 12:43:00,
2013-03-18 08:52:00,75.0,71.0,30.02,SSE,152,17.0,22.0,86,0.00,,,0.00,,2013-03-18 12:52:00,
2013-03-18 09:02:00,75.0,71.0,30.03,SSE,148,16.0,20.0,86,0.00,,,0.00,,2013-03-18 13:02:00,
2013-03-18 09:12:00,75.0,71.0,30.03,SSE,148,16.0,20.0,86,0.00,,,0.00,,2013-03-18 13:12:00,
2013-03-18 09:22:00,75.0,71.0,30.03,SE,145,16.0,19.0,86,0.00,,,0.00,,2013-03-18 13:22:00,
2013-03-18 09:33:00,75.0,71.0,30.04,SSE,148,12.0,20.0,86,0.00,,,0.00,,2013-03-18 13:33:00,
2013-03-18 09:42:00,75.0,71.0,30.04,SSE,148,12.0,20.0,86,0.00,,,0.00,,2013-03-18 13:42:00,
2013-03-18 09:52:00,75.0,70.0,30.04,SE,143,16.0,19.0,85,0.00,,,0.00,,2013-03-18 13:52:00,
2013-03-18 10:02:00,76.0,71.0,30.04,SSE,159,16.0,19.0,85,0.00,,,0.00,,2013-03-18 14:02:00,
2013-03-18 10:12:00,76.0,71.0,30.04,SSE,159,16.0,19.0,85,0.00,,,0.00,,2013-03-18 14:12:00,
2013-03-18 10:22:00,76.0,71.0,30.04,SE,143,14.0,19.0,85,0.00,,,0.00,,2013-03-18 14:22:00,
2013-03-18 10:32:00,76.0,71.0,30.04,South,189,15.0,19.0,84,0.00,,,0.00,,2013-03-18 14:32:00,
2013-03-18 10:42:00,76.0,71.0,30.04,South,189,15.0,19.0,84,0.00,,,0.00,,2013-03-18 14:42:00,
2013-03-18 10:52:00,76.0,71.0,30.04,SSE,163,15.0,19.0,84,0.00,,,0.00,,2013-03-18 14:52:00,
2013-03-18 11:02:00,76.0,71.0,30.05,SE,143,13.0,18.0,84,0.00,,,0.00,,2013-03-18 15:02:00,
2013-03-18 11:12:00,76.0,71.0,30.05,SE,143,13.0,18.0,84,0.00,,,0.00,,2013-03-18 15:12:00,
2013-03-18 11:22:00,76.0,70.0,30.04,SSE,162,15.0,20.0,83,0.00,,,0.00,,2013-03-18 15:22:00,
2013-03-18 11:33:00,76.0,70.0,30.04,SSE,165,16.0,20.0,83,0.00,,,0.00,,2013-03-18 15:33:00,
2013-03-18 11:43:00,76.0,70.0,30.04,SSE,165,16.0,20.0,83,0.00,,,0.00,,2013-03-18 15:43:00,
2013-03-18 11:52:00,76.0,70.0,30.03,SSE,163,20.0,22.0,83,0.00,,,0.00,,2013-03-18 15:52:00,
2013-03-18 12:03:00,76.0,70.0,30.03,South,169,20.0,23.0,83,0.00,,,0.00,,2013-03-18 16:03:00,
2013-03-18 12:12:00,76.0,70.0,30.03,South,169,20.0,23.0,83,0.00,,,0.00,,2013-03-18 16:12:00,
2013-03-18 12:23:00,76.0,71.0,30.01,SSE,151,22.0,25.0,84,0.00,,,0.00,,2013-03-18 16:23:00,
2013-03-18 12:33:00,76.0,71.0,30.00,South,177,25.0,28.0,84,0.00,,,0.00,,2013-03-18 16:33:00,
2013-03-18 12:42:00,76.0,71.0,30.00,South,177,25.0,28.0,84,0.00,,,0.00,,2013-03-18 16:42:00,
2013-03-18 12:53:00,76.0,71.0,30.01,South,188,21.0,28.0,84,0.00,,,0.00,,2013-03-18 16:53:00,
2013-03-18 13:02:00,76.0,71.0,30.01,SSE,148,20.0,26.0,84,0.00,,,0.00,,2013-03-18 17:02:00,
2013-03-18 13:12:00,76.0,71.0,30.01,SSE,148,20.0,26.0,84,0.00,,,0.00,,2013-03-18 17:12:00,
2013-03-18 13:22:00,77.0,71.0,30.00,SSE,158,19.0,25.0,83,0.00,,,0.00,,2013-03-18 17:22:00,
2013-03-18 13:32:00,76.0,70.0,30.00,South,174,20.0,27.0,83,0.00,,,0.00,,2013-03-18 17:32:00,
2013-03-18 13:42:00,76.0,70.0,30.00,South,174,20.0,27.0,83,0.00,,,0.00,,2013-03-18 17:42:00,
2013-03-18 13:52:00,77.0,71.0,30.00,SSE,156,18.0,21.0,83,0.00,,,0.00,,2013-03-18 17:52:00,
2013-03-18 14:02:00,77.0,71.0,29.99,SSE,151,17.0,22.0,83,0.00,,,0.00,,2013-03-18 18:02:00,
2013-03-18 14:12:00,77.0,71.0,29.99,SSE,151,17.0,22.0,83,0.00,,,0.00,,2013-03-18 18:12:00,
2013-03-18 14:22:00,77.0,72.0,29.98,SSE,166,16.0,20.0,85,0.00,,,0.00,,2013-03-18 18:22:00,
2013-03-18 14:32:00,77.0,72.0,29.98,SSE,166,16.0,20.0,85,0.00,,,0.00,,2013-03-18 18:32:00,
2013-03-18 14:42:00,77.0,72.0,29.98,SSE,166,16.0,20.0,85,0.00,,,0.00,,2013-03-18 18:42:00,
2013-03-18 14:52:00,77.0,72.0,29.96,SSE,167,14.0,22.0,84,0.00,,,0.00,,2013-03-18 18:52:00,
2013-03-18 15:02:00,77.0,72.0,29.96,South,188,16.0,21.0,84,0.00,,,0.00,,2013-03-18 19:02:00,
2013-03-18 15:12:00,77.0,72.0,29.96,South,188,16.0,21.0,84,0.00,,,0.00,,2013-03-18 19:12:00,
2013-03-18 15:22:00,77.0,71.0,29.94,South,188,14.0,23.0,83,0.00,,,0.00,,2013-03-18 19:22:00,
2013-03-18 15:33:00,77.0,71.0,29.94,SSE,151,17.0,23.0,82,0.00,,,0.00,,2013-03-18 19:33:00,
2013-03-18 15:42:00,77.0,71.0,29.94,SSE,151,17.0,23.0,82,0.00,,,0.00,,2013-03-18 19:42:00,
2013-03-18 15:52:00,77.0,71.0,29.94,South,171,13.0,21.0,82,0.00,,,0.00,,2013-03-18 19:52:00,
2013-03-18 16:02:00,77.0,71.0,29.95,South,191,13.0,18.0,82,0.00,,,0.00,,2013-03-18 20:02:00,
2013-03-18 16:12:00,77.0,71.0,29.95,South,191,13.0,18.0,82,0.00,,,0.00,,2013-03-18 20:12:00,
2013-03-18 16:23:00,77.0,71.0,29.96,SSW,193,9.0,14.0,83,0.00,,,0.00,,2013-03-18 20:23:00,
2013-03-18 16:33:00,77.0,71.0,29.97,SSW,202,9.0,13.0,83,0.00,,,0.00,,2013-03-18 20:33:00,
2013-03-18 16:42:00,77.0,71.0,29.97,SSW,202,9.0,13.0,83,0.00,,,0.00,,2013-03-18 20:42:00,
2013-03-18 16:52:00,77.0,72.0,29.96,SSE,157,8.0,9.0,85,0.00,,,0.00,,2013-03-18 20:52:00,
2013-03-18 17:02:00,76.0,72.0,29.96,SSE,157,7.0,9.0,86,0.00,,,0.00,,2013-03-18 21:02:00,
2013-03-18 17:12:00,76.0,72.0,29.96,SSE,157,7.0,9.0,86,0.00,,,0.00,,2013-03-18 21:12:00,
2013-03-18 17:22:00,76.0,72.0,29.95,SE,140,7.0,9.0,88,0.00,,,0.00,,2013-03-18 21:22:00,
2013-03-18 17:32:00,76.0,72.0,29.95,SSE,152,8.0,9.0,88,0.00,,,0.00,,2013-03-18 21:32:00,
2013-03-18 17:43:00,76.0,72.0,29.95,SSE,152,8.0,9.0,88,0.00,,,0.00,,2013-03-18 21:43:00,
2013-03-18 17:53:00,75.0,72.0,29.95,SE,140,9.0,10.0,89,0.00,,,0.00,,2013-03-18 21:53:00,
2013-03-18 18:03:00,75.0,72.0,29.95,SSE,147,8.0,11.0,89,0.00,,,0.00,,2013-03-18 22:03:00,
2013-03-18 18:13:00,75.0,72.0,29.95,SSE,147,8.0,11.0,89,0.00,,,0.00,,2013-03-18 22:13:00,
2013-03-18 18:23:00,75.0,72.0,29.96,SE,146,6.0,9.0,90,0.00,,,0.00,,2013-03-18 22:23:00,
2013-03-18 18:33:00,75.0,72.0,29.96,SE,140,6.0,7.0,90,0.00,,,0.00,,2013-03-18 22:33:00,
2013-03-18 18:42:00,75.0,72.0,29.96,SE,140,6.0,7.0,90,0.00,,,0.00,,2013-03-18 22:42:00,
2013-03-18 18:53:00,75.0,72.0,29.96,SSE,152,5.0,6.0,90,0.00,,,0.00,,2013-03-18 22:53:00,
2013-03-18 19:03:00,75.0,72.0,29.96,SSE,157,5.0,7.0,90,0.00,,,0.00,,2013-03-18 23:03:00,
2013-03-18 19:12:00,75.0,72.0,29.96,SSE,157,5.0,7.0,90,0.00,,,0.00,,2013-03-18 23:12:00,
2013-03-18 19:23:00,75.0,72.0,29.95,SE,138,6.0,8.0,91,0.00,,,0.00,,2013-03-18 23:23:00,
2013-03-18 19:33:00,75.0,72.0,29.95,SE,134,4.0,7.0,91,0.00,,,0.00,,2013-03-18 23:33:00,
2013-03-18 19:42:00,75.0,72.0,29.95,SE,134,4.0,7.0,91,0.00,,,0.00,,2013-03-18 23:42:00,
2013-03-18 19:53:00,75.0,72.0,29.96,East,94,0.0,1.0,91,0.00,,,0.00,,2013-03-18 23:53:00,
2013-03-18 20:02:00,75.0,73.0,29.96,ENE,57,0.0,2.0,92,0.00,,,0.00,,2013-03-19 00:02:00,
2013-03-18 20:12:00,75.0,73.0,29.96,ENE,57,0.0,2.0,92,0.00,,,0.00,,2013-03-19 00:12:00,
2013-03-18 20:23:00,74.0,72.0,29.95,East,99,1.0,2.0,92,0.00,,,0.00,,2013-03-19 00:23:00,
2013-03-18 20:32:00,74.0,72.0,29.95,East,97,6.0,7.0,92,0.00,,,0.00,,2013-03-19 00:32:00,
2013-03-18 20:42:00,74.0,72.0,29.95,East,97,6.0,7.0,92,0.00,,,0.00,,2013-03-19 00:42:00,
2013-03-18 20:52:00,74.0,72.0,29.96,East,90,2.0,2.0,92,0.00,,,0.00,,2013-03-19 00:52:00,
2013-03-18 21:02:00,74.0,72.0,29.96,NE,48,1.0,2.0,93,0.00,,,0.00,,2013-03-19 01:02:00,
2013-03-18 21:12:00,74.0,72.0,29.96,NE,48,1.0,2.0,93,0.00,,,0.00,,2013-03-19 01:12:00,
2013-03-18 21:22:00,74.0,72.0,29.96,NNE,24,0.0,1.0,93,0.00,,,0.00,,2013-03-19 01:22:00,
2013-03-18 21:32:00,74.0,72.0,29.96,NNE,30,1.0,2.0,93,0.00,,,0.00,,2013-03-19 01:32:00,
2013-03-18 21:42:00,74.0,72.0,29.96,NNE,30,1.0,2.0,93,0.00,,,0.00,,2013-03-19 01:42:00,
2013-03-18 21:52:00,74.0,72.0,29.96,East,94,2.0,2.0,93,0.00,,,0.00,,2013-03-19 01:52:00,
2013-03-18 22:03:00,74.0,72.0,29.97,East,94,1.0,4.0,93,0.00,,,0.00,,2013-03-19 02:03:00,
2013-03-18 22:12:00,74.0,72.0,29.97,East,94,1.0,4.0,93,0.00,,,0.00,,2013-03-19 02:12:00,
2013-03-18 22:22:00,74.0,72.0,29.97,ESE,110,3.0,4.0,94,0.00,,,0.00,,2013-03-19 02:22:00,
2013-03-18 22:33:00,74.0,72.0,29.97,ESE,115,2.0,4.0,94,0.00,,,0.00,,2013-03-19 02:33:00,
2013-03-18 22:42:00,74.0,72.0,29.97,ESE,115,2.0,4.0,94,0.00,,,0.00,,2013-03-19 02:42:00,
2013-03-18 22:53:00,74.0,72.0,29.98,SE,128,1.0,2.0,94,0.00,,,0.00,,2013-03-19 02:53:00,
2013-03-18 23:02:00,74.0,72.0,29.97,ESE,116,2.0,2.0,94,0.00,,,0.00,,2013-03-19 03:02:00,
2013-03-18 23:12:00,74.0,72.0,29.97,ESE,116,2.0,2.0,94,0.00,,,0.00,,2013-03-19 03:12:00,
2013-03-18 23:22:00,74.0,72.0,29.98,East,93,1.0,2.0,94,0.00,,,0.00,,2013-03-19 03:22:00,
2013-03-18 23:33:00,74.0,72.0,29.98,East,101,2.0,2.0,94,0.00,,,0.00,,2013-03-19 03:33:00,
2013-03-18 23:43:00,74.0,72.0,29.98,East,101,2.0,2.0,94,0.00,,,0.00,,2013-03-19 03:43:00,
2013-03-18 23:54:00,74.0,72.0,29.98,ESE,120,4.0,5.0,95,0.00,,,0.00,,2013-03-19 03:54:00,